STARLINK-32794, 62844

Orbit data source: Space-Track

STARLINK-32794, 62844 is a payload satellite owned by SpaceX/Seattle (US) in LEO that was launched on Mon, 27 Jan 2025 UTC via an FALCON 9 launch vehicle from the Air Force Eastern Test Range (AFETR). Payload-class satellites include a variety of spacecraft equipped with specific instruments for various scientific and technological missions. These include communications satellites like Starlink; space stations such as the ISS; scientific satellites like the Hubble; Earth observation satellites from companies like Planet Labs, Umbra, and HawkEye 360; GPS; miniature CubeSats for education and research; and military/defense satellites.

Loading next visibility...
Identifier
62844, 2025-019R
Orbit
LEO
Country
Flag of USUS
Related business
Manufacturer
SpaceX/Seattle
Mission
Operational Commercial Communications
Bus & Motor
STARLINK V2M, Unknown motor
Mass
730 kg wet, ~700 kg dry
Launch date (UTC)
2025-01-27 (1 year ago)
Launch vehicle
FALCON 9
Launch site
Air Force Eastern Test Range (AFETR)
Object type
Payload
Rocket body
Debris
Shape & HBR
Box + 2 Pan, 17.7 m
Radar Cross Section
33.884 m², Large (>1 m²)

Expand to show TLE details & history
Last TLE update: 17 hours ago

TLE from 17 hours ago
0 STARLINK-32794
1 62844U 25019R   26174.78486521  .00010662  00000-0  39629-3 0  9999
2 62844  43.0002 210.0808 0002066 276.0735  83.9881 15.27589414 78477
Epoch: 2026-06-23T18:50Z
TLE epoch observation values (Epoch: 2026-06-23T18:50:12.354Z)
Latitude
-0.00002°
Longitude
15.57785°
Altitude
482.648 km
Speed
7.626 km/s
True Right ascension
14h 00m 19s
True Declination
0° 00' 00"
Sunlit
Object was in full shadow at epoch
Visualization orbit readout
Latitude
Unknown
Longitude
Unknown
Altitude
Unknown
Speed
Unknown
Apparent Right ascension
Unknown
Apparent Declination
Unknown
Sunlit
N/A
Visualization observer readout
Local Sidereal Time
23:28:13
Azimuth
Unknown
Elevation
Unknown
Doppler factor
Unknown
Orbital elements
Apogee altitude
486.384 km
Perigee altitude
483.548 km
Semi-major axis
6,863.103 km
Eccentricity
0.00021
Inclination
43.0002°
RAAN
210.0808°
Arg. of periapsis
276.0735°
True anomaly
84.01165°
Mean anomaly
83.9881°
Eccentric anomaly
83.99987°
Mean motion
3.81735 °/min
Orbital period
94.31 mins
BSTAR
0.00039629
Loading maneuver chart data...
Computing Atmospheric mass density...
Loading historical data...
Loading historical data...
Loading historical data...
Loading historical data...
Loading historical data...
Loading historical data...
Loading historical data...

Documentation

Showing up to 5 results
|